Location: Bühlhof
(48.7849°N, 8.6361°E)
Time: 23:23:49
(UTC+00:00)

SMAP - Pass Details

Date: 19 January 2026
Orbit: 681 x 683 km, 98.1° (Epoch: 7 February)

Event Time Altitude Azimuth Distance (km) Brightness Sun altitude
Rises 17:00:02 0° 174° (S) 3,033 6.6 -9.4°
Reaches altitude 10° 17:02:18 10° 178° (S) 2,122 5.8 -9.7°
Maximum altitude 17:06:53 60° 259° (W) 785 3.7 -10.4°
Drops below altitude 10° 17:11:30 10° 339° (NNW) 2,137 5.7 -11.2°
Sets 17:13:47 0° 344° (NNW) 3,057 6.4 -11.5°
